Newburgh, NY

1:05 PM EDT on March 23, 2017 (GMT -0400)
Stewart International

Weather History for KSWF - August, 2013

Change the Weather History Date:

Friday, August 30, 2013

  Actual Average Record
Temperature  
Mean Temperature 75 °F -  
Max Temperature 82 °F 76 °F 93 °F (1973)
Min Temperature 68 °F 56 °F 35 °F (1986)
Cooling Degree Days 10    
Growing Degree Days 25 (Base 50)    
Moisture  
Dew Point 68 °F    
Average Humidity 81    
Maximum Humidity 94    
Minimum Humidity 62    
Precipitation  
Precipitation 0.00 in - - ()
Sea Level Pressure  
Sea Level Pressure 29.95 in    
Wind  
Wind Speed 7 mph (WSW)    
Max Wind Speed 12 mph    
Max Gust Speed -    
Visibility 9 miles    
Events      
Averages and records for this station are not official NWS values.
T = Trace of Precipitation, MM = Missing Value Source: NWS Daily Summary

Daily Weather History Graph

Daily Weather History Graph

Search for Another Location

Airport or City:

Trip Planner

Search our weather history database for the weather conditions in past years. The results will help you decide how hot, cold, wet, or windy it might be!

Date:

Astronomy

Aug. 30, 2013 Rise Set
Actual Time 6:20 AM EDT 7:32 PM EDT
Civil Twilight 5:52 AM EDT 8:00 PM EDT
Nautical Twilight 5:17 AM EDT 8:34 PM EDT
Astronomical Twilight 4:41 AM EDT 9:10 PM EDT
Moon 12:55 AM EDT (8/30) 3:48 PM EDT (8/30)
Length of Visible Light 14h 08m
Length of Day
13h 11m
Waning Crescent, 29% of the Moon is Illuminated
Aug 30
Waning Crescent
Sep 5
New
Sep 12
First Quarter
Sep 19
Full
Sep 26
Last Quarter

Hourly Weather History & Observations

Time (EDT) Temp. Heat Index Dew Point Humidity Pressure Visibility Wind Dir Wind Speed Gust Speed Precip Events Conditions
12:45 AM 68.0 °F - 66.2 °F 94% 30.05 in 10.0 mi South 5.8 mph - N/A   Overcast
2:45 AM 68.0 °F - 66.2 °F 94% 30.03 in 5.0 mi South 5.8 mph - N/A   Overcast
4:45 AM 68.0 °F - 66.2 °F 94% 30.01 in 6.0 mi SW 6.9 mph - N/A   Overcast
5:45 AM 68.0 °F - 66.2 °F 94% 30.01 in 6.0 mi SW 6.9 mph - N/A   Overcast
6:55 AM 68.0 °F - 66.2 °F 94% 30.02 in 6.0 mi West 5.8 mph - N/A   Mostly Cloudy
7:45 AM 68.0 °F - 66.2 °F 94% 30.02 in 6.0 mi West 4.6 mph - N/A   Scattered Clouds
8:45 AM 69.8 °F - 66.2 °F 88% 30.01 in 6.0 mi West 5.8 mph - N/A   Overcast
9:45 AM 71.6 °F - 68.0 °F 88% 30.00 in 6.0 mi WSW 11.5 mph - N/A   Mostly Cloudy
10:45 AM 75.2 °F - 69.8 °F 83% 30.00 in 10.0 mi WSW 9.2 mph - N/A   Mostly Cloudy
11:45 AM 77.0 °F - 68.0 °F 74% 29.98 in 10.0 mi WSW 11.5 mph - N/A   Scattered Clouds
2:45 PM 80.6 °F 83.9 °F 69.8 °F 70% 29.93 in 10.0 mi West 6.9 mph - N/A   Scattered Clouds
3:45 PM 82.4 °F 85.4 °F 68.0 °F 62% 29.91 in 15.0 mi West 6.9 mph - N/A   Mostly Cloudy
4:45 PM 82.4 °F 85.4 °F 68.0 °F 62% 29.90 in 15.0 mi WSW 11.5 mph - N/A   Mostly Cloudy
5:45 PM 82.4 °F 85.4 °F 68.0 °F 62% 29.89 in 15.0 mi WSW 6.9 mph - N/A   Mostly Cloudy
6:45 PM 82.4 °F 85.4 °F 68.0 °F 62% 29.88 in 10.0 mi WSW 6.9 mph - N/A   Mostly Cloudy
7:45 PM 77.0 °F - 71.6 °F 83% 29.87 in 7.0 mi Variable 5.8 mph - N/A   Scattered Clouds
8:45 PM 77.0 °F - 68.0 °F 74% 29.88 in 7.0 mi Variable 5.8 mph - N/A   Scattered Clouds
9:45 PM 75.2 °F - 69.8 °F 83% 29.88 in 7.0 mi Variable 5.8 mph - N/A   Scattered Clouds
10:45 PM 75.2 °F - 69.8 °F 83% 29.88 in 7.0 mi Variable 5.8 mph - N/A   Clear
11:45 PM 73.4 °F - 69.8 °F 88% 29.87 in 7.0 mi WSW 5.8 mph - N/A   Mostly Cloudy